Weather in Charleroi

Belgium     50°24′21″N   4°26′49″E
temp.,
°C
wind,
m/s
gust,
m/s
humid.,
%
clouds,
%
prec.,
mm/h
press.,
hPa
HPBL,
m
14 may, fri
fri1423:00+7se22745 0.0 100813
02:00+6sse22875 0.0 100830
05:00+6s23935 0.0 100740
08:00+8s35875 0.0 1008228
11:00+12sw3478100 0.4 1008936
14:00+14sw346493 1.1 10081510
17:00+14ssw346922 1.6 10071074
20:00+12sw358747 2.9 1007204
15 may, sat
sat1523:00+7ssw34955 0.1 100864
02:00+6ssw359798 0.1 100799
05:00+6sw489999 0.1 1006293
08:00+8ssw4892100 0.1 1006378
11:00+10ssw578382 0.4 1005855
14:00+8s5893100 2.1 1004940
17:00+9ssw4892100 0.6 1003762
20:00+10wsw510870 1.1 1002739
16 may, sun
sun1623:00+7sw512934 0.0 1004309
02:00+6ssw511962 0.0 1004278
05:00+6ssw513955 0.0 1004354
08:00+8ssw51096100 0.1 1003474
11:00+9sw5993100 1.0 1003806
14:00+13wsw71068100 1.4 10031637
17:00+12wsw5982100 0.9 1002800
20:00+11sw5989100 2.6 1002439
17 may, mon
mon1723:00+9sw5139369 0.8 1003441
02:00+8sw7149338 0.8 1002698
05:00+9sw81492100 0.3 1002908
08:00+9sw81494100 0.4 10031035
11:00+9sw81493100 2.0 1004813
14:00+13wsw91285100 3.5 10051257
17:00+13wsw71084100 2.3 10051167
20:00+11wsw51089100 4.3 1006513
18 may, tue
tue1823:00+9sw5119785 1.1 1008344
02:00+9sw6119797 1.6 1009496
05:00+8w6129667 0.4 1012627
08:00+8wsw6109579 0.4 1014578
11:00+11w8108048 0.6 10161238
14:00+13w81064100 1.4 10162024
17:00+13wsw7107740 1.3 10171373
20:00+11wsw4108569 2.1 1017671